Lid_Strength_Index
1 1 2 2 2 3 4 4 4 4 4 4 4 5 4 4 5 5 6 6 5 5 4 5 6 6 7 7 6 6 10 10 8 8 7 5 7 5 4 5 5 4 4 3 3
1 1 1 1 2 3 3 4 4 4 4 4 4 5 4 4 5 4 3 3 4 3 7 7 7 7 7 7 7 8 10 9 6 7 7 6 6 6 6 6 6 5 4 3 3
0 0 1 1 1 2 2 3 3 4 4 4 5 5 4 4 5 5 1 1 2 3 4 5 6 7 8 7 8 8 10 8 7 7 7 8 8 6 7 8 7 6 6 5 5
-0 0 0 0 1 1 2 3 3 4 4 4 5 4 4 4 8 3 0 1 1 2 4 6 7 9 9 9 7 10 8 8 8 8 8 9 7 8 8 7 6 6 6 6 6
-1 -0 -1 -0 0 1 2 3 3 4 4 5 5 5 4 5 4 1 -0 1 3 4 5 5 7 7 9 8 8 9 9 8 8 9 9 8 9 9 9 7 7 7 7 7 6
0 -0 -0 -0 -0 0 1 2 3 3 5 5 4 5 5 7 2 4 3 2 4 4 5 5 6 6 8 8 8 8 8 8 8 8 8 9 9 8 8 7 8 7 7 7 7
1 1 0 -0 -0 -0 1 2 3 4 5 6 5 6 6 5 2 3 4 4 3 4 6 5 5 6 7 8 6 7 9 8 8 7 8 7 9 9 7 6 7 8 7 7 6
1 1 1 1 0 0 1 2 3 4 5 5 5 6 8 2 2 3 3 4 4 3 4 4 5 6 7 6 7 9 9 11 7 6 7 7 10 7 6 7 7 7 6 6 6
1 1 1 1 1 1 2 3 4 5 5 5 6 6 6 3 5 3 3 5 4 4 4 5 5 6 6 8 10 9 11 9 8 6 7 8 9 7 6 7 7 7 6 6 6
2 2 1 2 2 2 3 4 5 5 6 5 6 8 5 5 3 5 3 4 6 6 6 7 7 8 8 9 13 10 9 9 9 7 7 9 8 7 6 7 7 7 6 6 6
2 2 1 1 2 3 5 5 7 8 7 6 5 5 4 3 4 5 4 6 6 7 9 7 9 11 8 7 8 8 9 9 8 7 8 8 8 8 7 7 7 7 7 6 6
2 2 2 1 2 3 2 6 5 4 7 5 4 4 3 2 5 4 2 6 7 9 7 8 10 8 6 7 8 8 10 10 8 7 8 9 9 8 7 7 6 7 6 6 5
2 2 2 1 2 4 3 4 3 2 7 6 4 5 4 3 5 5 3 4 6 7 7 8 7 6 7 8 9 9 10 10 10 8 7 8 10 9 7 6 6 6 5 4 4
2 2 2 2 5 4 5 4 4 2 12 9 6 5 4 3 6 3 2 4 6 8 7 8 6 7 7 8 8 11 8 9 10 10 12 8 13 9 8 8 7 6 5 4 4
1 1 1 1 4 6 4 4 4 4 19 7 6 4 5 5 5 5 2 4 8 7 7 9 8 8 9 9 7 10 8 9 10 11 11 11 12 10 8 8 7 6 5 5 4
1 0 0 2 2 2 3 4 3 13 18 9 7 8 7 6 5 5 6 3 4 7 7 7 5 6 8 7 7 7 9 10 10 11 15 12 11 11 9 8 7 7 6 5 4
0 0 2 2 5 1 4 4 13 17 8 9 8 7 7 7 7 7 8 8 9 11 11 8 8 6 7 9 9 9 11 15 15 15 16 11 11 10 8 7 7 7 6 5 4
1 2 1 1 3 4 4 9 17 10 9 7 7 7 9 7 8 8 8 9 7 8 10 14 16 9 8 9 10 10 11 14 21 18 15 11 13 11 8 7 6 5 5 5 5
2 3 4 4 4 4 7 15 13 9 7 8 7 9 9 8 9 9 9 9 8 7 11 13 13 7 8 8 9 10 12 9 13 12 14 12 10 9 8 8 7 6 6 5 5
6 6 7 4 4 5 10 13 10 7 7 7 10 9 11 10 9 9 9 7 8 7 6 9 15 9 9 8 8 9 9 13 11 17 17 14 13 12 12 10 8 7 6 6 5
6 10 8 3 4 8 13 12 10 6 6 8 9 9 9 10 9 10 9 8 7 8 6 8 10 11 10 10 11 11 12 11 11 12 17 17 14 10 11 9 8 7 6 6 6
8 12 7 4 12 11 11 10 7 7 8 8 8 8 9 9 10 10 11 9 7 7 10 9 10 14 11 9 9 9 11 10 14 15 13 13 14 8 8 7 6 7 7 6 6
11 11 8 6 13 11 9 9 9 9 9 9 9 9 9 10 12 11 10 9 8 7 9 9 12 14 13 11 10 12 11 11 11 11 14 15 13 7 7 7 6 6 6 6 6
9 13 11 11 9 10 11 10 10 7 8 8 9 8 9 10 9 11 11 9 8 8 8 7 10 12 14 13 11 13 11 10 10 14 12 12 11 8 7 7 7 7 7 6 7
7 9 8 12 10 10 9 10 11 12 9 9 10 10 10 11 11 12 10 10 8 8 8 9 13 11 11 10 11 11 11 10 11 10 13 11 11 9 7 7 7 7 7 7 8
8 8 8 9 9 10 10 11 11 11 11 11 11 9 9 11 10 11 9 9 10 8 9 9 12 12 12 11 11 12 11 11 10 10 10 10 11 7 7 6 7 8 8 9 10
4 3 6 10 10 11 11 10 10 9 10 9 9 10 10 10 8 7 7 7 8 9 10 10 11 13 15 13 12 15 12 11 10 9 10 12 9 7 7 8 8 9 9 10 10